• In Russia
  • List of Countries
  • For 7 days
  • Water Temperature
  • Weather Map
  • Weather Widgets
  • user-avatar
    Login

    Hourly Weather Andora

    Today, 31 May, Sunday

    Time Temperature Precipitation Wind Pressure Humidity
    00:00 +10°C° 0 mm 1 mps 623 mmHg 94%
    01:00 +9°C° 0 mm 1 mps 623 mmHg 92%
    02:00 +9°C° 0 mm 1 mps 622 mmHg 91%
    03:00 +8°C° 0 mm 1 mps 622 mmHg 90%
    04:00 +9°C° 0 mm 1 mps 622 mmHg 89%
    05:00 +10°C° 0 mm 1 mps 623 mmHg 89%
    06:00 +11°C° 0 mm 1 mps 623 mmHg 88%
    07:00 +13°C° 0 mm 1 mps 624 mmHg 77%
    08:00 +15°C° 0 mm 1 mps 625 mmHg 67%
    09:00 +18°C° 0 mm 1 mps 626 mmHg 57%
    10:00 +18°C° 0 mm 2 mps 626 mmHg 53%
    11:00 +19°C° 0 mm 2 mps 626 mmHg 49%
    12:00 +20°C° 0 mm 2 mps 626 mmHg 46%
    13:00 +19°C° 0.5 mm 2 mps 626 mmHg 53%
    14:00 +18°C° 0.5 mm 2 mps 625 mmHg 60%
    15:00 +17°C° 0.5 mm 2 mps 625 mmHg 67%
    16:00 +16°C° 0.9 mm 1 mps 624 mmHg 73%
    17:00 +15°C° 0.9 mm 1 mps 624 mmHg 80%
    18:00 +14°C° 0.9 mm 1 mps 624 mmHg 86%
    19:00 +13°C° 0.7 mm 1 mps 624 mmHg 89%
    20:00 +12°C° 0.7 mm 1 mps 624 mmHg 91%
    21:00 +11°C° 0.7 mm 1 mps 624 mmHg 94%
    22:00 +11°C° 0.2 mm 1 mps 623 mmHg 94%
    23:00 +11°C° 0.2 mm 1 mps 623 mmHg 94%

    Tomorrow, 1 June, Monday

    Time Temperature Precipitation Wind Pressure Humidity
    00:00 +11°C° 0.2 mm 1 mps 623 mmHg 94%
    01:00 +11°C° 0.2 mm 1 mps 623 mmHg 94%
    02:00 +11°C° 0.2 mm 1 mps 623 mmHg 93%
    03:00 +11°C° 0.2 mm 1 mps 623 mmHg 93%
    04:00 +11°C° 0 mm 1 mps 623 mmHg 90%
    05:00 +11°C° 0 mm 0 mps 624 mmHg 87%
    06:00 +11°C° 0 mm 0 mps 624 mmHg 84%
    07:00 +14°C° 0.2 mm 1 mps 625 mmHg 78%
    08:00 +15°C° 0.2 mm 1 mps 625 mmHg 72%
    09:00 +16°C° 0.2 mm 2 mps 626 mmHg 66%
    10:00 +16°C° 1.2 mm 1 mps 626 mmHg 71%
    11:00 +16°C° 1.2 mm 1 mps 626 mmHg 75%
    12:00 +16°C° 1.2 mm 1 mps 625 mmHg 79%
    13:00 +15°C° 1.7 mm 1 mps 625 mmHg 80%
    14:00 +15°C° 1.7 mm 1 mps 625 mmHg 82%
    15:00 +15°C° 1.7 mm 1 mps 625 mmHg 83%
    16:00 +14°C° 0.9 mm 1 mps 625 mmHg 86%
    17:00 +14°C° 0.9 mm 1 mps 624 mmHg 88%
    18:00 +13°C° 0.9 mm 1 mps 624 mmHg 90%
    19:00 +12°C° 0.3 mm 1 mps 624 mmHg 92%
    20:00 +12°C° 0.3 mm 1 mps 624 mmHg 93%
    21:00 +11°C° 0.3 mm 1 mps 624 mmHg 95%
    22:00 +11°C° 0.1 mm 1 mps 624 mmHg 95%
    23:00 +10°C° 0.1 mm 1 mps 624 mmHg 94%

    Day after tomorrow, 2 June, Tuesday

    Time Temperature Precipitation Wind Pressure Humidity
    00:00 +10°C° 0.1 mm 1 mps 623 mmHg 94%
    01:00 +10°C° 0.2 mm 1 mps 623 mmHg 93%
    02:00 +10°C° 0.2 mm 1 mps 623 mmHg 92%
    03:00 +11°C° 0.2 mm 1 mps 623 mmHg 91%
    04:00 +11°C° 0.1 mm 1 mps 624 mmHg 89%
    05:00 +12°C° 0.1 mm 1 mps 624 mmHg 86%
    06:00 +13°C° 0.1 mm 1 mps 624 mmHg 84%
    07:00 +14°C° 0.3 mm 1 mps 624 mmHg 81%
    08:00 +15°C° 0.3 mm 1 mps 625 mmHg 78%
    09:00 +16°C° 0.3 mm 2 mps 625 mmHg 75%
    10:00 +16°C° 0.8 mm 2 mps 625 mmHg 74%
    11:00 +16°C° 0.8 mm 2 mps 625 mmHg 73%
    12:00 +16°C° 0.8 mm 2 mps 625 mmHg 72%
    13:00 +16°C° 1 mm 2 mps 624 mmHg 75%
    14:00 +15°C° 1 mm 1 mps 624 mmHg 78%
    15:00 +15°C° 1 mm 1 mps 623 mmHg 80%
    16:00 +14°C° 0.6 mm 1 mps 623 mmHg 82%
    17:00 +14°C° 0.6 mm 1 mps 622 mmHg 84%
    18:00 +13°C° 0.6 mm 1 mps 622 mmHg 86%
    19:00 +12°C° 0.2 mm 1 mps 622 mmHg 87%
    20:00 +12°C° 0.2 mm 1 mps 622 mmHg 87%
    21:00 +11°C° 0.2 mm 1 mps 622 mmHg 87%
    22:00 +11°C° 0 mm 1 mps 621 mmHg 86%
    23:00 +10°C° 0 mm 1 mps 621 mmHg 85%

    3 June, Wednesday

    Time Temperature Precipitation Wind Pressure Humidity
    00:00 +10°C° 0 mm 1 mps 620 mmHg 84%
    01:00 +10°C° 0 mm 1 mps 620 mmHg 85%
    02:00 +10°C° 0 mm 1 mps 620 mmHg 85%
    03:00 +10°C° 0 mm 1 mps 620 mmHg 86%
    04:00 +11°C° 0 mm 1 mps 620 mmHg 86%
    05:00 +11°C° 0 mm 1 mps 620 mmHg 85%
    06:00 +12°C° 0 mm 1 mps 620 mmHg 84%
    07:00 +14°C° 0.5 mm 1 mps 621 mmHg 81%
    08:00 +15°C° 0.5 mm 1 mps 621 mmHg 79%
    09:00 +16°C° 0.5 mm 1 mps 622 mmHg 76%
    10:00 +16°C° 1.1 mm 2 mps 621 mmHg 75%
    11:00 +17°C° 1.1 mm 2 mps 621 mmHg 74%
    12:00 +17°C° 1.1 mm 2 mps 621 mmHg 73%
    13:00 +17°C° 0.8 mm 2 mps 621 mmHg 72%
    14:00 +17°C° 0.8 mm 2 mps 621 mmHg 71%
    15:00 +17°C° 0.8 mm 2 mps 620 mmHg 70%
    16:00 +17°C° 0.5 mm 2 mps 620 mmHg 73%
    17:00 +16°C° 0.5 mm 2 mps 620 mmHg 77%
    18:00 +15°C° 0.5 mm 1 mps 619 mmHg 81%
    19:00 +14°C° 0.3 mm 1 mps 619 mmHg 84%
    20:00 +13°C° 0.3 mm 1 mps 619 mmHg 88%
    21:00 +12°C° 0.3 mm 1 mps 619 mmHg 91%
    22:00 +12°C° 0.4 mm 1 mps 619 mmHg 91%
    23:00 +12°C° 0.4 mm 1 mps 619 mmHg 92%

    4 June, Thursday

    Time Temperature Precipitation Wind Pressure Humidity
    00:00 +12°C° 0.4 mm 1 mps 619 mmHg 92%
    01:00 +11°C° 0.1 mm 1 mps 619 mmHg 91%
    02:00 +10°C° 0.1 mm 1 mps 619 mmHg 91%
    03:00 +10°C° 0.1 mm 1 mps 618 mmHg 90%
    04:00 +11°C° 0 mm 1 mps 619 mmHg 88%
    05:00 +11°C° 0 mm 1 mps 619 mmHg 87%
    06:00 +12°C° 0 mm 2 mps 619 mmHg 86%
    07:00 +14°C° 0 mm 2 mps 620 mmHg 76%
    08:00 +16°C° 0 mm 2 mps 621 mmHg 66%
    09:00 +18°C° 0 mm 3 mps 622 mmHg 57%
    10:00 +18°C° 0 mm 3 mps 622 mmHg 53%
    11:00 +19°C° 0 mm 4 mps 622 mmHg 49%
    12:00 +20°C° 0 mm 4 mps 622 mmHg 45%
    13:00 +20°C° 0 mm 4 mps 622 mmHg 46%
    14:00 +20°C° 0 mm 4 mps 622 mmHg 46%
    15:00 +20°C° 0 mm 4 mps 622 mmHg 46%
    16:00 +19°C° 0.1 mm 3 mps 621 mmHg 55%
    17:00 +18°C° 0.1 mm 3 mps 621 mmHg 63%
    18:00 +17°C° 0.1 mm 2 mps 620 mmHg 72%
    19:00 +15°C° 0.1 mm 2 mps 620 mmHg 77%
    20:00 +14°C° 0.1 mm 2 mps 619 mmHg 82%
    21:00 +12°C° 0.1 mm 2 mps 619 mmHg 87%
    22:00 +12°C° 0 mm 2 mps 619 mmHg 85%
    23:00 +12°C° 0 mm 2 mps 619 mmHg 83%

    5 June, Friday

    Time Temperature Precipitation Wind Pressure Humidity
    00:00 +12°C° 0 mm 1 mps 619 mmHg 81%
    01:00 +11°C° 0 mm 1 mps 619 mmHg 80%
    02:00 +11°C° 0 mm 1 mps 618 mmHg 79%
    03:00 +10°C° 0 mm 1 mps 618 mmHg 78%
    04:00 +11°C° 0 mm 1 mps 619 mmHg 77%
    05:00 +12°C° 0 mm 2 mps 619 mmHg 77%
    06:00 +13°C° 0 mm 2 mps 620 mmHg 76%
    07:00 +15°C° 0 mm 2 mps 620 mmHg 66%
    08:00 +16°C° 0 mm 3 mps 621 mmHg 57%
    09:00 +18°C° 0 mm 3 mps 622 mmHg 47%
    10:00 +19°C° 0 mm 4 mps 622 mmHg 45%
    11:00 +19°C° 0 mm 4 mps 622 mmHg 44%
    12:00 +20°C° 0 mm 5 mps 623 mmHg 42%
    13:00 +20°C° 0 mm 5 mps 622 mmHg 43%
    14:00 +20°C° 0 mm 4 mps 622 mmHg 43%
    15:00 +19°C° 0 mm 4 mps 622 mmHg 44%
    16:00 +18°C° 0 mm 4 mps 622 mmHg 50%
    17:00 +17°C° 0 mm 3 mps 621 mmHg 56%
    18:00 +16°C° 0 mm 3 mps 621 mmHg 62%
    19:00 +15°C° 0 mm 2 mps 621 mmHg 66%
    20:00 +13°C° 0 mm 2 mps 620 mmHg 69%
    21:00 +12°C° 0 mm 1 mps 620 mmHg 73%
    22:00 +11°C° 0 mm 1 mps 620 mmHg 75%
    23:00 +11°C° 0 mm 1 mps 620 mmHg 77%
    Show more